CW0333 Weather Reports


Display with metric or nautical units.
time (UTC)temp
F
wind
direction
speed
MPH
gust
MPH
rain 1hr
in
rain 24hr
in
rain mn
in
humidity
%
barometer
mb
20260507071607 50 335 3.0 8.0 0.00 0.00 0.00 91 1007.1
20260507071103 50 330 6.0 6.0 0.00 0.00 0.00 91 1006.6
20260507070601 50 329 5.0 10.0 0.00 0.00 0.00 91 1006.6
20260507070057 50 307 3.0 9.0 0.00 0.00 0.00 90 1006.7
20260507065554 50 315 7.0 8.0 0.00 0.00 0.00 90 1006.5
20260507065051 51 243 0.0 11.0 0.00 0.00 0.00 91 1006.8
20260507064549 50 229 2.0 4.0 0.00 0.00 0.00 91 1006.4
20260507064047 50 12 1.0 11.0 0.00 0.00 0.00 91 1006.5
20260507063544 51 315 2.0 7.0 0.00 0.00 0.00 91 1006.3
20260507063041 51 274 0.0 8.0 0.00 0.00 0.00 91 1006.2
20260507062538 51 259 3.0 7.0 0.00 0.00 0.00 91 1006.0
20260507062035 51 339 4.0 11.0 0.00 0.00 0.00 91 1006.3
20260507061533 51 315 10.0 10.0 0.00 0.00 0.00 91 1006.2
20260507061031 51 331 3.0 7.0 0.00 0.00 0.00 91 1006.3
20260507060528 51 296 3.0 6.0 0.00 0.00 0.00 91 1006.5
20260507060025 51 319 6.0 8.0 0.00 0.00 0.00 91 1006.7
20260507055520 51 289 4.0 10.0 0.00 0.00 0.00 92 1006.6
20260507055016 51 357 7.0 12.0 0.00 0.00 0.00 92 1006.6
20260507054513 52 262 3.0 11.0 0.00 0.00 0.00 93 1006.6
20260507054010 52 297 5.0 8.0 0.00 0.00 0.00 92 1006.7
20260507053508 52 350 3.0 8.0 0.00 0.00 0.00 93 1006.7
20260507053006 52 306 5.0 8.0 0.00 0.00 0.00 93 1006.7
20260507052503 52 347 3.0 6.0 0.00 0.00 0.00 94 1006.6
20260507052000 53 257 3.0 7.0 0.00 0.00 0.00 93 1006.3
20260507051458 53 351 3.0 8.0 0.00 0.00 0.00 93 1006.1
20260507050954 53 323 7.0 9.0 0.00 0.00 0.00 93 1006.3
20260507050450 53 315 3.0 10.0 0.00 0.00 0.00 94 1006.3
20260507045948 53 315 7.0 9.0 0.00 0.00 0.00 93 1006.4
20260507045444 53 326 0.0 8.0 0.00 0.00 0.00 94 1006.3
20260507044942 53 266 5.0 7.0 0.00 0.00 0.00 95 1006.4
20260507044438 53 328 6.0 7.0 0.00 0.00 0.00 95 1006.6
20260507043934 54 286 2.0 4.0 0.00 0.00 0.00 95 1006.7
20260507043431 54 320 4.0 9.0 0.00 0.00 0.00 95 1006.6
20260507042927 54 310 5.0 10.0 0.00 0.00 0.00 95 1006.5
20260507042424 53 321 8.0 11.0 0.00 0.00 0.00 98 1006.4
20260507041919 53 293 2.0 5.0 0.00 0.00 0.00 99 1006.3
20260507041416 53 304 4.0 11.0 0.00 0.00 0.00 99 1006.4
20260507040914 53 259 4.0 6.0 0.00 0.00 0.00 99 1006.3
20260507040409 53 290 3.0 6.0 0.00 0.00 0.00 99 1006.2
20260507035905 54 242 3.0 9.0 0.00 0.31 0.31 99 1006.3
20260507035402 55 314 5.0 11.0 0.00 0.31 0.31 99 1006.2
20260507034859 56 270 4.0 8.0 0.00 0.31 0.31 99 1005.9
20260507034356 57 0 3.0 9.0 0.00 0.31 0.31 99 1005.9
20260507033854 57 99 0.0 17.0 0.00 0.31 0.31 99 1005.9
20260507033352 57 314 7.0 8.0 0.00 0.31 0.31 99 1005.9
20260507032848 57 320 3.0 12.0 0.00 0.31 0.31 99 1005.9
20260507032345 57 319 6.0 7.0 0.00 0.31 0.31 99 1005.9
20260507031841 54 344 3.0 8.0 0.00 0.31 0.31 99 1006.0
20260507031338 52 0 1.0 3.0 0.00 0.31 0.31 99 1005.6
20260507030834 51 314 5.0 5.0 0.00 0.31 0.31 99 1005.6
20260507030332 52 172 0.0 3.0 0.00 0.31 0.31 99 1005.7
20260507025829 52 168 1.0 4.0 0.00 0.31 0.31 99 1005.5
20260507025326 52 145 3.0 4.0 0.00 0.31 0.31 99 1005.6
20260507024824 52 158 3.0 4.0 0.00 0.31 0.31 99 1005.6
20260507024321 52 170 2.0 5.0 0.00 0.31 0.31 99 1005.6
20260507023817 51 128 2.0 3.0 0.00 0.31 0.31 99 1005.5
20260507023313 51 194 0.0 3.0 0.00 0.31 0.31 99 1005.7
20260507022811 51 210 2.0 3.0 0.00 0.31 0.31 99 1005.7
20260507022307 52 68 0.0 6.0 0.00 0.31 0.31 99 1005.9
20260507021803 51 73 2.0 2.0 0.00 0.31 0.31 99 1005.8
20260507021259 51 35 1.0 3.0 0.00 0.31 0.31 99 1005.7
20260507020757 52 0 0.0 3.0 0.00 0.31 0.31 99 1005.9
20260507020253 52 75 1.0 2.0 0.00 0.31 0.31 99 1006.0
20260507015751 52 90 0.0 2.0 0.00 0.31 0.31 99 1006.1
20260507015248 52 35 0.0 3.0 0.00 0.31 0.31 99 1006.0
20260507014745 53 157 0.0 3.0 0.00 0.31 0.31 99 1006.2
20260507014241 53 182 3.0 5.0 0.00 0.31 0.31 99 1006.1
20260507013738 54 203 3.0 5.0 0.00 0.31 0.31 99 1006.1
20260507013236 54 195 2.0 3.0 0.00 0.31 0.31 99 1006.3
20260507012733 54 182 3.0 5.0 0.00 0.31 0.31 99 1006.0
20260507012228 54 217 4.0 6.0 0.00 0.31 0.31 99 1006.3
20260507011726 54 221 5.0 7.0 0.02 0.31 0.31 99 1006.3
20260507011222 54 224 8.0 8.0 0.02 0.31 0.31 99 1006.3
20260507010722 54 152 2.0 8.0 0.00 0.31 0.31 99 1006.1
20260507010218 54 194 6.0 8.0 0.00 0.31 0.31 99 1006.2
20260507005716 54 225 6.0 12.0 0.00 0.31 0.31 99 1006.3
20260507005212 54 230 7.0 12.0 0.00 0.31 0.31 99 1006.3
20260507004708 54 222 5.0 11.0 0.00 0.31 0.31 99 1006.4
20260507004206 54 229 9.0 18.0 0.00 0.31 0.31 99 1006.3
20260507003702 54 203 14.0 15.0 0.00 0.31 0.31 99 1006.1
20260507003158 54 266 5.0 9.0 0.00 0.31 0.31 99 1006.2
20260507002654 54 160 15.0 17.0 0.00 0.31 0.31 99 1006.4
20260507002150 54 220 10.0 13.0 0.00 0.31 0.31 99 1006.3
20260507001647 54 225 7.0 13.0 0.02 0.31 0.31 99 1006.2
20260507001144 54 201 4.0 9.0 0.02 0.31 0.31 99 1006.2
20260507000641 54 220 5.0 12.0 0.00 0.30 0.30 99 1006.2
20260507000136 54 190 5.0 12.0 0.02 0.30 0.30 99 1006.1
20260506235634 54 243 3.0 15.0 0.12 0.30 0.30 99 1006.1
20260506235133 54 195 7.0 10.0 0.14 0.30 0.30 99 1005.9
20260506234631 54 203 7.0 12.0 0.07 0.28 0.28 99 1006.2
20260506234128 54 220 7.0 13.0 0.02 0.28 0.28 99 1006.0
20260506233625 54 235 6.0 14.0 0.05 0.27 0.27 99 1006.2
20260506233122 54 213 7.0 12.0 0.05 0.27 0.27 99 1006.2
20260506232618 54 190 6.0 13.0 0.05 0.26 0.26 99 1006.2
20260506232114 54 216 6.0 11.0 0.05 0.26 0.26 99 1006.3
20260506231611 54 209 10.0 17.0 0.02 0.26 0.26 99 1006.2
20260506231109 54 212 11.0 14.0 0.02 0.25 0.25 99 1006.1
20260506230606 54 225 8.0 17.0 0.02 0.25 0.25 99 1006.2
20260506230103 54 173 9.0 20.0 0.02 0.25 0.25 99 1006.3
20260506225559 54 196 4.0 17.0 0.02 0.25 0.25 99 1006.4
20260506225055 54 193 7.0 12.0 0.00 0.24 0.24 99 1006.3
20260506224553 54 203 10.0 15.0 0.02 0.24 0.24 99 1006.3
20260506224049 54 235 9.0 17.0 0.05 0.24 0.24 99 1006.4
20260506223545 54 188 7.0 14.0 0.05 0.24 0.24 99 1006.5
20260506223042 54 196 6.0 10.0 0.07 0.24 0.24 99 1006.5
20260506222539 54 211 6.0 12.0 0.05 0.23 0.23 99 1006.5
20260506222035 54 189 4.0 10.0 0.05 0.22 0.22 99 1006.6
20260506221533 54 208 7.0 19.0 0.07 0.22 0.22 99 1006.6
20260506221031 55 185 9.0 12.0 0.02 0.22 0.22 99 1006.7
20260506220526 55 202 6.0 16.0 0.00 0.21 0.21 99 1006.8
20260506220022 55 191 9.0 12.0 0.02 0.21 0.21 99 1006.9
20260506215519 55 180 5.0 19.0 0.02 0.21 0.21 99 1006.8
20260506215015 55 180 7.0 22.0 0.02 0.21 0.21 99 1007.2
20260506214512 55 197 6.0 14.0 0.05 0.20 0.20 99 1007.0
20260506214009 55 221 8.0 15.0 0.07 0.20 0.20 99 1006.9
20260506213507 55 232 6.0 15.0 0.05 0.20 0.20 99 1007.1
20260506213004 55 232 10.0 13.0 0.02 0.19 0.19 99 1007.2
20260506212500 55 194 12.0 13.0 0.05 0.19 0.19 99 1007.2
20260506211955 55 189 12.0 17.0 0.07 0.19 0.19 99 1007.3
20260506211451 55 208 5.0 12.0 0.02 0.18 0.18 99 1007.4
20260506210949 56 208 13.0 20.0 0.05 0.18 0.18 99 1007.4
20260506210445 56 213 11.0 13.0 0.05 0.17 0.17 99 1007.4
20260506205942 56 206 9.0 20.0 0.05 0.17 0.17 99 1007.3
20260506205438 56 244 18.0 29.0 0.09 0.17 0.17 99 1007.3
20260506204934 56 183 13.0 22.0 0.12 0.16 0.16 98 1007.3
20260506204432 56 230 10.0 17.0 0.12 0.15 0.15 98 1007.3
20260506203930 57 255 9.0 19.0 0.14 0.14 0.14 98 1007.5
20260506203427 57 186 8.0 14.0 0.21 0.13 0.13 97 1007.4
20260506202923 57 242 10.0 19.0 0.19 0.12 0.12 97 1007.4
20260506202421 57 216 14.0 24.0 0.12 0.09 0.09 97 1007.6
20260506201917 57 214 8.0 14.0 0.14 0.08 0.08 96 1007.5
20260506201415 57 212 10.0 16.0 0.07 0.07 0.07 96 1007.3
20260506200911 57 203 6.0 20.0 0.07 0.06 0.06 96 1007.3
20260506200407 57 236 7.0 18.0 0.07 0.06 0.06 95 1007.1
20260506195904 57 192 8.0 20.0 0.05 0.05 0.05 95 1007.3
20260506195401 58 214 17.0 18.0 0.05 0.04 0.04 95 1007.2
20260506194858 59 222 7.0 13.0 0.05 0.04 0.04 95 1007.3
20260506194354 59 226 9.0 10.0 0.07 0.04 0.04 95 1007.4
20260506193852 59 214 5.0 7.0 0.05 0.03 0.03 95 1007.4
20260506193349 59 222 6.0 10.0 0.07 0.02 0.02 95 1007.6
20260506192845 59 202 5.0 10.0 0.05 0.02 0.02 94 1007.6
20260506192342 58 234 5.0 7.0 0.02 0.01 0.01 92 1007.7
20260506191839 59 253 15.0 15.0 0.05 0.01 0.01 91 1007.5
20260506191335 60 219 5.0 26.0 0.02 0.01 0.01 89 1007.6
20260506190832 60 230 18.0 22.0 0.02 0.00 0.00 89 1007.3
20260506190328 60 221 9.0 18.0 0.00 0.00 0.00 88 1007.2
20260506185825 60 200 8.0 34.0 0.00 0.00 0.00 87 1007.2
20260506185322 60 215 5.0 17.0 0.00 0.00 0.00 87 1007.3
20260506184819 60 200 9.0 20.0 0.00 0.00 0.00 86 1007.3
20260506184317 60 214 12.0 26.0 0.00 0.00 0.00 86 1007.4
20260506183814 60 213 17.0 20.0 0.00 0.00 0.00 87 1007.2
20260506183309 58 218 9.0 21.0 0.00 0.00 0.00 89 1007.4
20260506182806 57 209 11.0 18.0 0.00 0.00 0.00 89 1007.5
20260506182306 56 188 15.0 16.0 0.00 0.00 0.00 90 1007.6
20260506181801 56 206 9.0 13.0 0.00 0.00 0.00 89 1007.7
20260506181259 57 180 9.0 17.0 0.00 0.00 0.00 88 1007.7
20260506180756 58 221 5.0 21.0 0.00 0.00 0.00 87 1007.7
20260506180251 58 189 17.0 26.0 0.00 0.00 0.00 87 1007.7
20260506175748 57 207 11.0 16.0 0.00 0.00 0.00 88 1007.9
20260506175245 57 199 14.0 18.0 0.00 0.00 0.00 88 1007.8
20260506174743 58 197 12.0 25.0 0.00 0.00 0.00 87 1007.8
20260506174239 58 228 11.0 21.0 0.00 0.00 0.00 88 1007.7
20260506173737 57 190 10.0 17.0 0.00 0.00 0.00 88 1007.8
20260506173233 57 191 4.0 21.0 0.00 0.00 0.00 88 1007.8
20260506172730 57 212 6.0 22.0 0.00 0.00 0.00 88 1008.1
20260506172226 57 189 11.0 19.0 0.00 0.00 0.00 88 1007.9
20260506171719 57 183 11.0 22.0 0.00 0.00 0.00 88 1008.1
20260506171216 57 230 7.0 21.0 0.00 0.00 0.00 88 1008.1
20260506170714 57 195 10.0 16.0 0.00 0.00 0.00 87 1008.1
20260506170210 57 173 8.0 18.0 0.00 0.00 0.00 88 1008.1
20260506165709 56 192 12.0 20.0 0.00 0.00 0.00 88 1008.4
20260506165205 56 196 9.0 13.0 0.00 0.00 0.00 89 1008.4
20260506164702 56 202 11.0 19.0 0.00 0.00 0.00 88 1008.4
20260506164159 57 227 7.0 21.0 0.00 0.00 0.00 89 1008.5
20260506163656 57 190 6.0 15.0 0.00 0.00 0.00 88 1008.4
20260506163151 57 180 14.0 20.0 0.00 0.00 0.00 87 1008.6
20260506162647 58 193 9.0 16.0 0.00 0.00 0.00 87 1008.6
20260506162145 59 209 8.0 13.0 0.00 0.00 0.00 87 1008.7
20260506161642 59 184 8.0 17.0 0.00 0.00 0.00 87 1008.8
20260506161139 59 206 10.0 21.0 0.00 0.00 0.00 86 1009.0
20260506160636 58 204 9.0 17.0 0.00 0.00 0.00 87 1009.1
20260506160133 59 223 7.0 11.0 0.00 0.00 0.00 87 1009.1
20260506155632 59 203 9.0 15.0 0.00 0.00 0.00 87 1009.1
20260506155128 59 184 14.0 17.0 0.00 0.00 0.00 86 1009.3
20260506153230 60 225 9.0 18.0 0.00 0.00 0.00 86 1009.5
20260506152727 60 196 13.0 19.0 0.00 0.00 0.00 86 1009.5
20260506152225 60 218 11.0 17.0 0.00 0.00 0.00 85 1009.4
20260506151724 62 219 13.0 20.0 0.00 0.00 0.00 84 1009.5
20260506151220 61 211 12.0 17.0 0.00 0.00 0.00 85 1009.6
20260506150716 60 204 12.0 17.0 0.00 0.00 0.00 86 1009.7
20260506150213 60 232 12.0 20.0 0.00 0.00 0.00 86 1009.6
20260506145711 60 180 5.0 18.0 0.00 0.00 0.00 86 1009.6
20260506145207 61 208 9.0 11.0 0.00 0.00 0.00 85 1009.5
20260506144704 61 185 8.0 19.0 0.00 0.00 0.00 85 1009.4
20260506144201 60 193 5.0 19.0 0.00 0.00 0.00 88 1009.4
20260506143659 60 217 8.0 11.0 0.00 0.00 0.00 88 1009.4
20260506143156 59 176 8.0 15.0 0.00 0.00 0.00 88 1009.3
20260506142655 58 196 8.0 11.0 0.00 0.00 0.00 89 1009.3
20260506142152 57 189 8.0 12.0 0.00 0.00 0.00 90 1009.1
20260506141650 57 194 11.0 13.0 0.00 0.00 0.00 91 1009.3
20260506141148 56 176 6.0 15.0 0.00 0.00 0.00 91 1009.3
20260506140645 57 203 11.0 13.0 0.00 0.00 0.00 92 1009.2
20260506140142 56 183 7.0 16.0 0.00 0.00 0.00 92 1009.3
20260506135639 56 168 9.0 18.0 0.00 0.00 0.00 92 1009.4
20260506135135 56 187 10.0 12.0 0.00 0.00 0.00 91 1009.5
20260506134632 57 188 7.0 11.0 0.00 0.00 0.00 91 1009.7
20260506134128 57 184 5.0 10.0 0.00 0.00 0.00 91 1009.8
20260506133625 57 193 5.0 7.0 0.00 0.00 0.00 92 1009.6
20260506133122 56 192 6.0 10.0 0.00 0.00 0.00 93 1009.7
20260506132620 56 182 6.0 9.0 0.00 0.00 0.00 92 1009.7
20260506132116 57 193 8.0 12.0 0.00 0.00 0.00 91 1009.7
20260506131614 56 167 5.0 10.0 0.00 0.00 0.00 91 1009.7
20260506131110 57 169 6.0 12.0 0.00 0.00 0.00 91 1009.6
20260506130607 57 220 3.0 7.0 0.00 0.00 0.00 91 1009.7
20260506130104 57 182 6.0 11.0 0.00 0.00 0.00 92 1009.7
20260506125603 56 193 7.0 11.0 0.00 0.00 0.00 92 1009.4
20260506125100 55 122 4.0 13.0 0.00 0.00 0.00 93 1009.5
20260506124558 56 150 5.0 14.0 0.00 0.00 0.00 92 1009.5
20260506124055 55 185 9.0 11.0 0.00 0.00 0.00 92 1009.7
20260506123553 55 183 8.0 9.0 0.00 0.00 0.00 92 1009.7
20260506123051 55 182 10.0 10.0 0.00 0.00 0.00 94 1009.7
20260506122547 53 177 12.0 12.0 0.00 0.00 0.00 94 1009.7
20260506122046 53 198 6.0 13.0 0.00 0.00 0.00 94 1009.6
20260506121543 53 185 6.0 12.0 0.00 0.00 0.00 94 1009.5
20260506121039 53 180 4.0 10.0 0.00 0.00 0.00 94 1009.8
20260506120537 53 207 6.0 11.0 0.00 0.00 0.00 94 1010.0
20260506120034 54 177 7.0 10.0 0.00 0.00 0.00 94 1009.8
20260506115532 54 191 6.0 7.0 0.00 0.00 0.00 94 1010.2
20260506115030 54 175 5.0 6.0 0.00 0.00 0.00 94 1009.9
20260506114527 53 182 4.0 6.0 0.00 0.00 0.00 94 1010.0
20260506114026 54 178 4.0 7.0 0.00 0.00 0.00 94 1010.2
20260506113523 53 181 7.0 7.0 0.00 0.00 0.00 94 1010.0
20260506113020 53 207 4.0 10.0 0.00 0.00 0.00 94 1010.2
20260506112517 53 180 2.0 7.0 0.00 0.00 0.00 94 1010.2
20260506112014 53 170 2.0 7.0 0.00 0.00 0.00 94 1010.0
20260506111512 53 185 5.0 8.0 0.00 0.00 0.00 94 1009.8
20260506111009 52 154 3.0 7.0 0.00 0.00 0.00 94 1010.1
20260506110507 52 127 3.0 6.0 0.00 0.00 0.00 95 1010.2
20260506110004 52 187 3.0 6.0 0.00 0.00 0.00 95 1010.1
20260506105459 52 183 5.0 10.0 0.00 0.00 0.00 94 1010.0
20260506104957 53 172 3.0 4.0 0.00 0.00 0.00 94 1010.0
20260506104455 53 148 3.0 5.0 0.00 0.00 0.00 94 1009.9
20260506103953 53 151 3.0 5.0 0.00 0.00 0.00 94 1010.1
20260506103449 53 184 3.0 6.0 0.00 0.00 0.00 94 1010.1
20260506102946 52 170 4.0 8.0 0.00 0.00 0.00 94 1009.9
20260506102444 52 176 5.0 5.0 0.00 0.00 0.00 94 1009.9
20260506101942 52 188 4.0 8.0 0.00 0.00 0.00 95 1010.2
20260506101438 51 182 4.0 5.0 0.00 0.00 0.00 95 1009.9
20260506100935 51 150 3.0 7.0 0.00 0.00 0.00 94 1009.9
20260506100434 52 193 6.0 8.0 0.00 0.00 0.00 93 1009.9
20260506095931 53 196 7.0 9.0 0.00 0.00 0.00 91 1010.0
20260506095430 57 191 5.0 6.0 0.00 0.00 0.00 86 1009.9
20260506094925 59 196 3.0 9.0 0.00 0.00 0.00 87 1010.1
20260506094424 58 201 0.0 6.0 0.00 0.00 0.00 87 1010.0
20260506093921 57 196 4.0 5.0 0.00 0.00 0.00 88 1010.0
20260506093419 57 209 3.0 6.0 0.00 0.00 0.00 89 1009.9
20260506092917 56 198 5.0 6.0 0.00 0.00 0.00 90 1009.9
20260506092415 55 202 4.0 5.0 0.00 0.00 0.00 90 1009.8
20260506091911 55 191 3.0 5.0 0.00 0.00 0.00 89 1009.8
20260506091409 55 180 4.0 5.0 0.00 0.00 0.00 89 1009.6
20260506090906 56 192 3.0 4.0 0.00 0.00 0.00 89 1009.7
20260506090403 55 183 4.0 4.0 0.00 0.00 0.00 89 1009.9
20260506085900 55 128 0.0 4.0 0.00 0.00 0.00 89 1009.7
20260506085356 56 163 4.0 6.0 0.00 0.00 0.00 87 1009.8
20260506084853 56 162 3.0 5.0 0.00 0.00 0.00 89 1009.7
20260506084350 55 180 3.0 8.0 0.00 0.00 0.00 91 1009.7
20260506083846 55 128 3.0 3.0 0.00 0.00 0.00 89 1009.6
20260506083344 55 213 4.0 4.0 0.00 0.00 0.00 89 1009.6
20260506082841 55 156 2.0 3.0 0.00 0.00 0.00 89 1009.7
20260506082338 55 180 0.0 3.0 0.00 0.00 0.00 89 1009.7
20260506081834 55 117 0.0 5.0 0.00 0.00 0.00 89 1009.7
20260506081332 54 63 0.0 3.0 0.00 0.00 0.00 89 1009.6
20260506080829 55 111 1.0 3.0 0.00 0.00 0.00 89 1009.7
20260506080325 55 196 4.0 6.0 0.00 0.00 0.00 89 1009.6
20260506073310 52 180 2.0 5.0 0.00 0.00 0.00 92 1009.5
20260506072806 52 131 0.0 4.0 0.00 0.00 0.00 92 1009.4
20260506072306 52 125 0.0 2.0 0.00 0.00 0.00 91 1009.3